TimePDT,TemperatureF,Dew PointF,Humidity,Sea Level PressureIn,VisibilityMPH,Wind Direction,Wind SpeedMPH,Gust SpeedMPH,PrecipitationIn,Events,Conditions,WindDirDegrees,DateUTC
12:15 AM,37.4,30.2,75,29.87,10.0,Calm,Calm,-,N/A,,Mostly Cloudy,0,2012-10-21 07:15:00
12:35 AM,37.4,30.2,75,29.88,10.0,Calm,Calm,-,N/A,,Mostly Cloudy,0,2012-10-21 07:35:00
12:55 AM,37.4,30.2,75,29.88,10.0,Calm,Calm,-,N/A,,Mostly Cloudy,0,2012-10-21 07:55:00
1:15 AM,35.6,30.2,81,29.88,10.0,Calm,Calm,-,N/A,,Mostly Cloudy,0,2012-10-21 08:15:00
1:35 AM,35.6,30.2,81,29.88,10.0,Calm,Calm,-,N/A,,Scattered Clouds,0,2012-10-21 08:35:00
1:55 AM,35.6,30.2,81,29.88,10.0,SSW,3.5,-,N/A,,Scattered Clouds,200,2012-10-21 08:55:00
2:15 AM,35.6,28.4,75,29.88,10.0,Calm,Calm,-,N/A,,Mostly Cloudy,0,2012-10-21 09:15:00
2:35 AM,35.6,30.2,81,29.88,10.0,Calm,Calm,-,N/A,,Scattered Clouds,0,2012-10-21 09:35:00
2:55 AM,33.8,28.4,81,29.89,10.0,Calm,Calm,-,N/A,,Clear,0,2012-10-21 09:55:00
3:15 AM,33.8,30.2,87,29.89,10.0,Calm,Calm,-,N/A,,Scattered Clouds,0,2012-10-21 10:15:00
3:35 AM,33.8,28.4,81,29.88,10.0,Calm,Calm,-,N/A,,Mostly Cloudy,0,2012-10-21 10:35:00
3:55 AM,33.8,28.4,81,29.88,10.0,Calm,Calm,-,N/A,,Mostly Cloudy,0,2012-10-21 10:55:00
4:15 AM,32.0,28.4,87,29.88,10.0,ESE,4.6,-,N/A,Thunderstorm,Scattered Clouds,120,2012-10-21 11:15:00
4:35 AM,32.0,28.4,87,29.88,10.0,SE,5.8,-,N/A,,Scattered Clouds,130,2012-10-21 11:35:00
4:55 AM,32.0,28.4,87,29.88,10.0,SE,6.9,-,N/A,,Clear,130,2012-10-21 11:55:00
5:15 AM,32.0,28.4,87,29.88,10.0,SE,8.1,-,N/A,,Clear,140,2012-10-21 12:15:00
5:35 AM,32.0,28.4,87,29.88,10.0,SE,6.9,-,N/A,,Clear,130,2012-10-21 12:35:00
5:55 AM,32.0,28.4,87,29.88,10.0,ESE,9.2,-,N/A,,Clear,120,2012-10-21 12:55:00
6:15 AM,32.0,28.4,87,29.88,10.0,ESE,10.4,-,N/A,,Clear,110,2012-10-21 13:15:00
6:35 AM,32.0,28.4,87,29.88,10.0,East,5.8,-,N/A,,Clear,100,2012-10-21 13:35:00
6:55 AM,30.2,28.4,93,29.88,10.0,East,4.6,-,N/A,,Clear,100,2012-10-21 13:55:00
7:15 AM,32.0,30.2,93,29.88,10.0,East,4.6,-,N/A,,Clear,90,2012-10-21 14:15:00
7:35 AM,32.0,28.4,87,29.88,10.0,SSE,5.8,-,N/A,,Clear,160,2012-10-21 14:35:00
7:55 AM,32.0,28.4,87,29.89,10.0,South,4.6,-,N/A,,Clear,180,2012-10-21 14:55:00
8:15 AM,33.8,28.4,81,29.90,10.0,SSE,4.6,-,N/A,,Clear,160,2012-10-21 15:15:00
8:35 AM,33.8,28.4,81,29.90,10.0,SSE,5.8,-,N/A,,Clear,150,2012-10-21 15:35:00
8:55 AM,35.6,28.4,75,29.90,10.0,SSE,9.2,-,N/A,,Clear,150,2012-10-21 15:55:00
9:15 AM,35.6,30.2,81,29.90,10.0,ESE,6.9,-,N/A,,Clear,120,2012-10-21 16:15:00
9:35 AM,37.4,30.2,75,29.90,10.0,ESE,6.9,-,N/A,,Clear,110,2012-10-21 16:35:00
9:55 AM,37.4,30.2,75,29.89,10.0,Calm,Calm,-,N/A,,Clear,0,2012-10-21 16:55:00
10:15 AM,39.2,32.0,75,29.88,10.0,East,5.8,-,N/A,,Clear,100,2012-10-21 17:15:00
10:35 AM,41.0,30.2,65,29.88,10.0,East,6.9,-,N/A,,Clear,80,2012-10-21 17:35:00
10:55 AM,41.0,30.2,65,29.87,10.0,NE,5.8,-,N/A,,Clear,40,2012-10-21 17:55:00
11:15 AM,42.8,30.2,61,29.87,10.0,NE,4.6,-,N/A,,Clear,50,2012-10-21 18:15:00
11:35 AM,42.8,30.2,61,29.86,10.0,NNE,4.6,-,N/A,,Clear,30,2012-10-21 18:35:00
11:55 AM,44.6,28.4,53,29.86,10.0,North,3.5,-,N/A,,Clear,10,2012-10-21 18:55:00
12:15 PM,44.6,26.6,49,29.85,10.0,Calm,Calm,-,N/A,,Clear,0,2012-10-21 19:15:00
12:35 PM,46.4,26.6,46,29.84,10.0,Calm,Calm,-,N/A,,Clear,0,2012-10-21 19:35:00
12:55 PM,48.2,21.2,34,29.83,10.0,SSW,4.6,-,N/A,,Clear,200,2012-10-21 19:55:00
1:15 PM,48.2,19.4,32,29.82,10.0,SSE,4.6,-,N/A,,Clear,160,2012-10-21 20:15:00
1:35 PM,48.2,19.4,32,29.82,10.0,Calm,Calm,-,N/A,,Scattered Clouds,0,2012-10-21 20:35:00
1:55 PM,48.2,21.2,34,29.81,10.0,WNW,8.1,-,N/A,,Mostly Cloudy,290,2012-10-21 20:55:00
2:15 PM,48.2,21.2,34,29.81,10.0,WNW,6.9,-,N/A,,Mostly Cloudy,300,2012-10-21 21:15:00
2:35 PM,48.2,21.2,34,29.80,10.0,WNW,5.8,-,N/A,,Mostly Cloudy,290,2012-10-21 21:35:00
2:55 PM,46.4,23.0,40,29.81,10.0,WNW,6.9,-,N/A,,Mostly Cloudy,290,2012-10-21 21:55:00
3:15 PM,50.0,21.2,32,29.80,10.0,WNW,6.9,-,N/A,,Scattered Clouds,300,2012-10-21 22:15:00
3:35 PM,50.0,21.2,32,29.79,10.0,WNW,5.8,-,N/A,,Scattered Clouds,300,2012-10-21 22:35:00
3:55 PM,50.0,21.2,32,29.79,10.0,Calm,Calm,-,N/A,,Mostly Cloudy,0,2012-10-21 22:55:00
4:15 PM,50.0,21.2,32,29.79,10.0,WNW,4.6,-,N/A,,Scattered Clouds,300,2012-10-21 23:15:00
4:35 PM,48.2,23.0,37,29.79,10.0,West,4.6,-,N/A,,Clear,260,2012-10-21 23:35:00
4:55 PM,46.4,21.2,37,29.78,10.0,WNW,3.5,-,N/A,,Clear,300,2012-10-21 23:55:00
5:15 PM,46.4,23.0,40,29.79,10.0,WSW,4.6,-,N/A,,Clear,250,2012-10-22 00:15:00
5:35 PM,44.6,23.0,43,29.78,10.0,West,4.6,-,N/A,,Clear,280,2012-10-22 00:35:00
5:55 PM,42.8,23.0,46,29.78,10.0,WSW,3.5,-,N/A,,Clear,250,2012-10-22 00:55:00
6:15 PM,42.8,23.0,46,29.78,10.0,SSE,4.6,-,N/A,,Clear,150,2012-10-22 01:15:00
6:35 PM,42.8,23.0,46,29.78,10.0,Calm,Calm,-,N/A,,Clear,0,2012-10-22 01:35:00
6:55 PM,42.8,23.0,46,29.78,10.0,SE,4.6,-,N/A,,Clear,140,2012-10-22 01:55:00
7:15 PM,41.0,23.0,49,29.77,10.0,SSE,4.6,-,N/A,,Clear,150,2012-10-22 02:15:00
7:35 PM,41.0,23.0,49,29.77,10.0,SSE,5.8,-,N/A,,Clear,160,2012-10-22 02:35:00
7:55 PM,37.4,24.8,60,29.78,10.0,ESE,9.2,-,N/A,,Clear,110,2012-10-22 02:55:00
8:15 PM,37.4,26.6,65,29.78,10.0,East,9.2,-,N/A,,Clear,100,2012-10-22 03:15:00
8:35 PM,37.4,26.6,65,29.78,10.0,ESE,9.2,-,N/A,,Clear,110,2012-10-22 03:35:00
8:55 PM,37.4,24.8,60,29.78,10.0,East,9.2,-,N/A,,Clear,100,2012-10-22 03:55:00
9:15 PM,35.6,23.0,60,29.77,10.0,ESE,10.4,-,N/A,,Clear,120,2012-10-22 04:15:00
9:35 PM,35.6,23.0,60,29.77,10.0,ESE,5.8,-,N/A,,Clear,110,2012-10-22 04:35:00
9:55 PM,33.8,23.0,65,29.76,10.0,ESE,6.9,-,N/A,,Clear,110,2012-10-22 04:55:00
10:15 PM,33.8,23.0,65,29.76,10.0,ESE,8.1,-,N/A,,Clear,110,2012-10-22 05:15:00
10:35 PM,33.8,23.0,65,29.76,10.0,ESE,6.9,-,N/A,,Clear,120,2012-10-22 05:35:00
10:55 PM,33.8,23.0,65,29.76,10.0,ESE,6.9,-,N/A,,Clear,120,2012-10-22 05:55:00
11:35 PM,32.0,23.0,69,29.75,10.0,ESE,6.9,-,N/A,,Clear,120,2012-10-22 06:35:00
11:55 PM,33.8,23.0,65,29.74,10.0,SE,4.6,-,N/A,,Clear,130,2012-10-22 06:55:00